This is the latest recevied weather packets stored in our database for station/object Kirchdorf. If no packets are shown the sender has not sent any weather packets the latest 10 day(s).
| Time | Temp. | Humidity | Pressure | Rain* | Wind** | Luminosity | Snow |
|---|---|---|---|---|---|---|---|
| 1777642330 | 21.11° C | 31% | 1025.6 hPa | 0 mm | - | - | - |
| 1777640531 | 20.56° C | 32% | 1025.7 hPa | 0 mm | - | - | - |
| 1777638736 | 20.56° C | 32% | 1026 hPa | 0 mm | - | - | - |
| 1777636931 | 20° C | 30% | 1026.3 hPa | 0 mm | - | - | - |
| 1777635130 | 18.89° C | 32% | 1026.7 hPa | 0 mm | - | - | - |
| 1777633331 | 18.33° C | 32% | 1027.1 hPa | 0 mm | - | - | - |
| 1777631531 | 17.78° C | 31% | 1027.4 hPa | 0 mm | - | - | - |
| 1777629731 | 16.67° C | 35% | 1027.2 hPa | 0 mm | - | - | - |
| 1777627930 | 15° C | 37% | 1027.5 hPa | 0 mm | - | - | - |
| 1777626132 | 13.89° C | 41% | 1027.7 hPa | 0 mm | - | - | - |
| 1777624331 | 12.22° C | 44% | 1028.1 hPa | 0 mm | - | - | - |
| 1777622532 | 11.67° C | 46% | 1028 hPa | 0 mm | - | - | - |
| 1777620733 | 10° C | 48% | 1027.8 hPa | 0 mm | - | - | - |
| 1777618930 | 8.33° C | 52% | 1028 hPa | 0 mm | - | - | - |
| 1777617131 | 6.67° C | 56% | 1027.7 hPa | 0 mm | - | - | - |
| 1777615333 | 6.11° C | 59% | 1027.7 hPa | 0 mm | - | - | - |
| 1777613531 | 5° C | 61% | 1027.4 hPa | 0 mm | - | - | - |
| 1777611731 | 2.78° C | 77% | 1027.3 hPa | 0 mm | - | - | - |
| 1777609931 | 2.78° C | 65% | 1026.9 hPa | 0 mm | - | - | - |
| 1777608131 | 2.22° C | 69% | 1026.9 hPa | 0 mm | - | - | - |
| 1777606332 | 2.78° C | 70% | 1026.7 hPa | 0 mm | - | - | - |
| 1777604532 | 3.33° C | 63% | 1026.6 hPa | 0 mm | - | - | - |
| 1777602733 | 5° C | 57% | 1026.4 hPa | 0 mm | - | - | - |
| 1777600931 | 4.44° C | 58% | 1026.6 hPa | 0 mm | - | - | - |
| 1777599131 | 5° C | 55% | 1026.7 hPa | 0 mm | - | - | - |
* Rain since midnight (hover to see other rain measurements)
** Current wind speed in m/s (hover to see current wind gust speed)